www.pogodaiklimat.ru

Погода и климат >> Архив погоды >> Португалия >> Санта-Мария


ПОГОДА в Санта-Марии

  • Прогноз погоды в Санта-Марии
  • Монитор погоды в Санта-Марии

АРХИВ ПОГОДЫ в Санта-Марии

Время (UTC), дата Ветер
(напр.,м/с)
 
Видим.   Явления Облачность Т
(С)
Тd
(С)
f
(%)
Тe
(С)
Тes
(С)
Комфортность P
(гПа)
Po
(гПа)
Тmin
(С)
Tmax
(С)
R
(мм)
R24
(мм)
S
(см)
12 18.06 С 3
{5}
20 км {морось} 9/9 240 м
[Cu Sc Ci fib]
+20.7 +19 +21 1016.6 1005.9 0.1
15 18.06 Ю 4 20 км 9/8 180 м
[Cu Sc Ci fib]
+20.6 +19 +22 1016.9 1006.2
18 18.06 З 2 20 км 9/5 450 м
[Cu Sc Ac trans Ci fib]
+20.1 +16.4 79 +23 +25 комфорт 1016.9 1006.2 +22.3 0.1
21 18.06 штиль 0 30 км 5/5 500 м
[Cu Sc Ac trans]
+18.9 +16.1 84 +20 +20 1017.3 1006.6
00 19.06 штиль 0 30 км 5/5 500 м
[Cu Sc]
+17.8 +15.9 89 +18 +18 1018.1 1007.4
03 19.06 В 2 30 км 3/3 600 м
[Cu Sc Ci fib]
+16.8 +17 +17 1017.5 1006.7
06 19.06 В 2 30 км 4/1 600 м
[Cu Sc Ci fib]
+16.5 +17 +17 1017.7 1006.9 +16.3
09 19.06 ЮВ 1 55 км 8/5 420 м
[Cu Sc Ac trans Ci fib]
+20.3 +20 +22 1018.7 1008.0
12 19.06 ЮВ 4
{7}
60 км 6/5 500 м
[Cu Sc Ci fib]
+20.9 +19 +25 1019.1 1008.4
15 19.06 Ю 4
{6}
60 км 4/4 600 м
[Cu Sc]
+22.1 +19 +27 1019.1 1008.5
18 19.06 ЮЗ 3 60 км 5/3 600 м
[Cu Sc Ac trans]
+21.2 +19 +22 1019.1 1008.5 +22.9
21 19.06 нст 1 30 км 4/1 420 м
[Cu Sc Ac trans Ci fib]
+19.5 +16.9 85 +23 +23 комфорт 1019.5 1008.8
00 20.06 С 2 н/о н/о +18.3 -27.7 3 +19 +19 1020.1 1009.4
03 20.06 нст 3
{5}
30 км 6/6 200 м
[]
+18.8 +19 +19 1019.5 1008.8
06 20.06 З 2
{6}
30 км 5/4 270 м
[Cu Sc Ac trans Ci fib]
+18.7 -27.4 3 +19 +19 1019.2 1008.4 +18.1
09 20.06 ЮЗ 3
{5}
30 км 8/5 200 м
[Cb calv Ac cuf Cs]
+20.1 +19 +21 1019.8 1009.1
12 20.06 ЮЗ 6 30 км 5/3 330 м
[Cu Sc Ac trans Ci fib]
+22.1 +18.0 78 +27 +31 душно 1019.6 1009.0
15 20.06 30 км н/о +22.9 1018.9 1008.3
18 20.06 -9
{10}
30 км н/о +21.2 1018.3 1007.7 +24.2
21 20.06 ЮЗ 6
{9}
25 км 9/9 240 м
[Cu Sc Ac und]
+20.0 +19 +19 1018.6 1007.9
00 21.06 С 6 25 км 9/9 120 м
[Cu Sc]
+20.2 +19 +19 1018.0 1007.3
03 21.06 ЮЗ 8 20 км {дождь} 10/10 120 м
[Frnb]
+19.9 +18 +18 1016.0 1005.4
06 21.06 ЮЗ 8 15 км {дождь, морось} 10/10 120 м
[Frnb]
+19.6 -26.8 3 +18 +18 1015.3 1004.6 +19.3 2
09 21.06 СЗ 6
{9}
н/о н/о +20.0 +19 +19 1015.5 1004.8
12 21.06 20 км н/о +20.8 1014.5 1003.9
15 21.06 ЮЗ 8
{15}
18 км 9/8 120 м
[Frnb Ac As]
+21.0 +19 +19 1013.0 1002.4
18 21.06 С 7
{14}
н/о {морось} н/о +19.3 -25.6 3 +18 +18 1012.6 1002.0 +21.4 2
21 21.06 нст 7 10 км {туман, морось} 8/4 180 м
[Cu Sc Ac As Ci fib]
+19.3 -27.0 3 +18 +18 1013.6 1002.9
00 22.06 нст 6 20 км {туман, морось} 4/3 300 м
[Cu Sc Ci fib]
+18.9 -27.3 3 +18 +18 1014.3 1003.6 0.2
03 22.06
{9}
15 км н/о +18.6 1013.4 1002.8
06 22.06
{11}
20 км н/о +18.2 1013.6 1002.9 +18.0 0.2
09 22.06 З 7 28 км 9/5 540 м
[Cu Sc Ac lent Cs]
+19.3 +15.8 80 +20 +21 1013.8 1003.2
12 22.06 З 8
{12}
30 км 6/5 540 м
[Cu hum Ci sp]
+21.5 +19 +21 1014.5 1003.9
15 22.06 нст 7 30 км 6/1 420 м
[Cu hum Ac trans Ci fib]
+22.8 +17.5 72 +28 +31 душно 1014.5 1004.0
18 22.06 нст 8 30 км 9/3 420 м
[Cu Sc Ac trans Ci fib]
+20.3 +17.1 82 +23 +23 комфорт 1013.9 1003.3 +23.2
21 22.06 С 4-5
{7}
н/о н/о +19.2 +17.1 88 +21 +21 комфорт 1013.5 1002.8
00 23.06 ЮЗ 3
{5}
15 км слаб. дождь 9/9 400 м
[Cu Sc]
+17.9 +18 +18 1013.0 1002.3 1
03 23.06 В 3 4000 м слаб. дождь {морось} 10/10 90 м
[Frnb]
+18.8 -27.4 3 +19 +19 1010.3 999.7 3
06 23.06 СВ 9 6000 м {дождь, морось} 10/10 60 м
[Frnb]
+16.6 +15 +15 1010.1 999.4 +16.3 9
09 23.06 нст 8 15 км {дождь} 6/5 240 м
[Cu Sc Ci fib]
+18.6 +17 +18 1011.9 1001.2
12 23.06 нст 9 25 км {морось, дождь} 8/6 420 м
[Cu Sc Ci fib]
+20.9 +16.1 74 +24 +25 комфорт 1013.4 1002.8 0.1
15 23.06 С 7 н/о н/о +21.8 +14.9 65 +25 +25 комфорт 1014.1 1003.6
18 23.06 С 5
{8}
30 км 6/6 720 м
[Cu Sc Ci fib]
+20.4 +19 +20 1014.9 1004.3 +22.7 0.1
21 23.06 С 3
{5}
>70 км 5/5 600 м
[Cu Sc]
+18.9 +15.2 79 +20 +20 1016.5 1005.8
00 24.06 С 4
{6}
н/о н/о +17.5 +15.3 87 +17 +17 1017.9 1007.1
03 24.06 нст 4
{6}
50 км 3/3 600 м
[Cu Sc]
+17.1 +14.8 86 +17 +17 1017.3 1006.5
06 24.06 С 5 50 км 3/3 600 м
[Cu Sc]
+16.8 +13.4 80 +16 +16 1017.5 1006.7 +16.6
09 24.06 С 5
{8}
н/о н/о +20.0 +12.9 64 +22 +22 комфорт 1018.4 1007.8
12 24.06 С 5-7
{8}
>70 км 1/1 800 м
[Cu Sc]
+21.2 +19 +28 1019.4 1008.8
15 24.06 СЗ 5 >70 км 1/1 630 м
[Cu Sc]
+21.7 +15.9 70 +25 +34 комфорт 1019.9 1009.2
18 24.06 СЗ 5 >70 км 3/3 750 м
[Cu Sc]
+22.0 +14.2 61 +25 +28 комфорт 1019.8 1009.1 +23.0
21 24.06 СВ 3
{6}
50 км 5/5 750 м
[Cu Sc]
+19.0 +14.6 76 +20 +20 1020.7 1009.9
00 25.06 С 6 50 км 9/9 600 м
[Cu Sc]
+19.1 +14.9 77 +20 +20 1022.1 1011.4
03 25.06 С 5 50 км 9/9 600 м
[Cu Sc]
+18.7 +18 +18 1021.6 1010.8
06 25.06 СЗ 4
{6}
50 км 9/9 600 м
[Cu Sc]
+18.6 +18 +18 1021.3 1010.5 +18.4
09 25.06 СЗ 4-7
{7}
>70 км 9/9 600 м
[Cu Sc]
+19.4 +15.0 76 +21 +21 комфорт 1022.4 1011.7

 

Местоположение метеостанции Санта-Мария (Португалия): широта 36.97 долгота -25.16 высота над уровнем моря 100 м.

В архиве по умолчанию представлена погода в Санта-Марии за последнюю неделю. Архивные данные за месяц целиком и за предыдущие месяцы, начиная с января 2011 года, Вы можете получить, выбрав интересующий диапазон дат из раскрывающегося списка и нажав кнопку "Ввод!".


*Определитесь, кто Вы:
робот инопланетянин человек

Внимание! Время в таблицах - всемирное. Для получения местного времени необходимо прибавить поправку, которая равна 0 ч.

Смотрите также архив погоды в соседних городах и на ближайших метеорологических станциях:

Погода в Понта-Делгаде (Португалия) (97 км)
Погода в Ангра-ду-Эроижму (Португалия) (261 км)
Погода в Аэропорту Лажеша (Португалия) (263 км)
Погода в Сан-Жоржи (Португалия) (324 км)
Погода в Пико (Португалия) (338 км)
Погода на Острове Грасьоса (Португалия) (344 км)
Погода в Орте (Португалия) (350 км)
Погода в Каштелу-Бранку (Португалия) (357 км)
Погода на Флошише (Португалия) (590 км)
Погода в Фуншале (Португалия) (895 км)

Пояснения к столбцам:

Ветер - указаны скорость ветра в м/с - средняя за 10 мин, порывы в срок и между сроками (в фигурных скобках) и направление, откуда дует ветер: С - северный, СВ - северо-восточный, В - восточный, ЮВ - юго-восточный, Ю - южный, ЮЗ - юго-западный, З - западный, СЗ - северо-западный.
Видимость - горизонтальная дальность видимости в метрах или километрах. При видимости от 1 до 10 км при отсутствии осадков обычно наблюдается дымка, при ухудшении видимости до 1 км и менее - туман. В сухую погоду видимость может ухудшаться дымом, пылью или мглою.
Явления - указаны атмосферные явления, наблюдавшиеся в срок или в последний час перед сроком; фигурными скобками обозначены явления, наблюдавшиеся между сроками (за 1-3 часа до срока); квадратными скобками обозначены град или гололедные отложения с указанием их диаметра в мм.
Облачность - указаны через наклонную черту общая и нижняя облачность в баллах и высота нижней границы облаков в метрах; квадратными скобками обозначены формы облаков: Ci - перистые, Cs - перисто-слоистые, Cc - перисто-кучевые, Ac - высококучевые, As - высокослоистые, Sc - слоисто-кучевые, Ns - слоисто-дождевые, Cu - кучевые, Cb - кучево-дождевые. Подробнее классификацию облаков см. в Атласе облаков (PDF).
T - Температура воздуха - температура, измеренная на высоте 2 м над землей.
Td - Температура точки росы - температура, при понижении до которой содержащийся в воздухе водяной пар достигнет насыщения.
f - Относительная влажность воздуха - влажноcть воздуха, измеренная на высоте 2 м над землей.
Te - Эффективная температура - температура, которую ощущает одетый по сезону человек в тени. Характеристика душности погоды. При расчете учитывается влияние влажности воздуха и скорости ветра на теплоощущения человека.
Tes - Эффективная температура на солнце - температура, которую ощущает человек, с поправкой на солнечный нагрев. Характеристика знойности погоды. Зависит от высоты солнца над горизонтом, облачности и скорости ветра. Ночью, в пасмурную погоду, а также при ветре 12 м/с и более поправка равна нулю.
P - Атмосферное давление - приведенное к уровню моря атмосферное давление.
Po - Атмосферное давление - измеренное на уровне метеостанции атмосферное давление.
Tmin - Минимальная температура - минимум температуры воздуха на высоте 2 м над землей.
Tmax - Максимальная температура - максимум температуры воздуха на высоте 2 м над землей.
R - Количество осадков - Количество выпавших осадков за период времени, мм. При наведении курсора мыши на число - период времени, за который выпало указанное количество осадков.
R24 - Количество осадков - Количество выпавших осадков за 24 часа, мм.
S - Снежный покров - Высота снежного покрова, см. При наведении курсора мыши на число - состояние снежного покрова и степень покрытия местности в баллах.